Content
SEND FEEDBACK

Daily
Averages
Monthly
Summary
United States of America

CONWAY, SOUTH CAROLINA


Home > North America > United States > South Carolina
Elevation: 22 feet     Latitude: 33 50N     Longitude: 079 03W

WEATHER
 
SELECT A DAY
Number of Records: 129,054;   Date Range: 12/8/08 - 7/6/14
 
SHARE

PRINT THIS DATA

[ ← Previous Day ]
WEATHER ALMANAC - FEBRUARY 13, 2013
[ Next Day → ]
[ °C ]   °F
Weather ElementAverageHighLow
Temperature52.5 °F62.6 °F (2:55 pm)46.4 °F (4:15 am)
Dewpoint50.4 °F60.8 °F (2:15 pm)46.4 °F (4:15 am)
Humidity93.4 %100 % (12:35 am)67 % (6:15 pm)
Barometer29.79 in29.94 in (12:35 am)29.68 in (2:35 pm)
Wind Speed4.8 mph12.7 mph (3:35 pm)
Wind Gust19.6 mph (6:15 pm)
Weather ElementAverage
Visibility6.5 mi
Wind DirectionSSE (144.3 °)

Weather ElementTotal
Precipitation0.70 in
Heating Degree Days10.5 (Base 65)
Growing Degree Days4.5 (Base 50)
Averaged from 70 records on February 13, 2013
WEATHER CONDITIONS BREAKOUT
WIND DIRECTION BREAKOUT
WEATHER BY HOUR - FEBRUARY 13, 2013
[ °C ]   °F
Local TimeTemperatureDewpointHumidityBarometerVisibilityWind DirectionWind SpeedGust SpeedPrecipitationEventsConditions
12:35 AM50.0 °F50.0 °F100 %29.94 in10.0 miNE (50°)3.5 mph0.03 inRainRain
12:55 AM50.0 °F50.0 °F100 %29.90 in10.0 miEast (80°)4.6 mph0.06 inRainLight Rain
1:15 AM50.0 °F50.0 °F100 %29.90 in10.0 miEast (100°)5.8 mph0.02 inRainHeavy Rain
1:35 AM50.0 °F50.0 °F100 %29.89 in4.0 miEast (80°)5.8 mph0.14 inRainHeavy Rain
1:55 AM48.2 °F48.2 °F100 %29.89 in5.0 miNE (40°)6.9 mph0.20 inRainHeavy Rain
2:15 AM48.2 °F48.2 °F100 %29.90 in7.0 miCalm0.05 inRainRain
2:35 AM48.2 °F48.2 °F100 %29.88 in10.0 miENE (60°)4.6 mph0.06 inRainLight Rain
2:55 AM48.2 °F48.2 °F100 %29.85 in10.0 miENE (70°)4.6 mph0.07 inLight Drizzle
3:15 AM48.2 °F48.2 °F100 %29.83 in10.0 miEast (90°)3.5 mphRainRain
3:35 AM48.2 °F48.2 °F100 %29.83 in10.0 miENE (60°)8.1 mphRainLight Rain
3:55 AM48.2 °F48.2 °F100 %29.81 in10.0 miSE (130°)6.9 mph0.01 inOvercast
4:15 AM46.4 °F46.4 °F100 %29.81 in7.0 miNE (40°)6.9 mphRainLight Rain
4:35 AM46.4 °F46.4 °F100 %29.79 in10.0 miESE (110°)6.9 mph0.01 inRainLight Rain
4:55 AM48.2 °F48.2 °F100 %29.78 in7.0 miESE (120°)6.9 mph0.01 inOvercast
5:15 AM46.4 °F46.4 °F100 %29.79 in7.0 miEast (80°)4.6 mphOvercast
5:35 AM48.2 °F48.2 °F100 %29.80 in7.0 miENE (60°)5.8 mphOvercast
5:55 AM46.4 °F46.4 °F100 %29.78 in5.0 miENE (60°)3.5 mphOvercast
6:15 AM46.4 °F46.4 °F100 %29.81 in7.0 miCalmOvercast
6:35 AM46.4 °F46.4 °F100 %29.81 in5.0 miCalmRainLight Rain
6:55 AM46.4 °F46.4 °F100 %29.80 in3.0 miCalm0.01 inRainLight Rain
7:15 AM46.4 °F46.4 °F100 %29.79 in4.0 miCalmRainLight Rain
7:35 AM46.4 °F46.4 °F100 %29.77 in4.0 miEast (80°)3.5 mphOvercast
7:55 AM48.2 °F48.2 °F100 %29.76 in3.0 miENE (70°)4.6 mphOvercast
8:15 AM48.2 °F48.2 °F100 %29.77 in2.5 miNNE (20°)3.5 mphOvercast
8:35 AM48.2 °F48.2 °F100 %29.81 in1.5 miCalmOvercast
8:55 AM48.2 °F48.2 °F100 %29.82 in2.0 miCalmOvercast
9:15 AM48.2 °F48.2 °F100 %29.78 in2.0 miNE (40°)3.5 mphOvercast
9:35 AM48.2 °F48.2 °F100 %29.81 in2.5 miCalmOvercast
9:55 AM50.0 °F50.0 °F100 %29.80 in4.0 miCalmOvercast
10:15 AM50.0 °F50.0 °F100 %29.79 in4.0 miCalmOvercast
10:35 AM50.0 °F50.0 °F100 %29.77 in4.0 miCalmOvercast
10:55 AM50.0 °F50.0 °F100 %29.75 in2.0 miSSE (150°)5.8 mphOvercast
11:15 AM51.8 °F51.8 °F100 %29.78 in2.0 miSW (220°)3.5 mphOvercast
11:35 AM51.8 °F51.8 °F100 %29.77 in2.5 miSSW (200°)4.6 mphOvercast
11:55 AM53.6 °F53.6 °F100 %29.75 in5.0 miSSW (200°)6.9 mphOvercast
12:15 PM55.4 °F55.4 °F100 %29.73 in5.0 miSSW (200°)6.9 mphOvercast
12:35 PM57.2 °F57.2 °F100 %29.73 in7.0 miSSW (210°)5.8 mphOvercast
12:55 PM57.2 °F57.2 °F100 %29.71 in5.0 miWSW (240°)4.6 mphOvercast
1:15 PM59.0 °F59.0 °F100 %29.71 in3.0 miSW (220°)5.8 mphOvercast
1:35 PM59.0 °F59.0 °F100 %29.69 in5.0 miSSW (210°)4.6 mphOvercast
1:55 PM59.0 °F59.0 °F100 %29.71 in5.0 miSW (230°)3.5 mphOvercast
2:15 PM60.8 °F60.8 °F100 %29.71 in5.0 miWSW (250°)4.6 mphOvercast
2:35 PM60.8 °F60.8 °F100 %29.68 in5.0 miSW (220°)6.9 mphOvercast
2:55 PM62.6 °F60.8 °F94 %29.70 in5.0 miSW (230°)8.1 mphMostly Cloudy
3:15 PM62.6 °F55.4 °F77 %29.68 in7.0 miSW (220°)8.1 mphScattered Clouds
3:35 PM62.6 °F53.6 °F72 %29.70 in5.0 miWSW (240°)12.7 mph17.3 mphHaze
3:55 PM62.6 °F51.8 °F68 %29.69 in7.0 miWSW (240°)9.2 mph18.4 mphScattered Clouds
4:15 PM62.6 °F51.8 °F68 %29.69 in7.0 miSW (230°)8.1 mph18.4 mphClear
4:55 PM60.8 °F51.8 °F72 %29.72 in7.0 miSW (230°)6.9 mphScattered Clouds
5:15 PM60.8 °F51.8 °F72 %29.74 in7.0 miWSW (240°)6.9 mphMostly Cloudy
5:35 PM60.8 °F50.0 °F68 %29.73 in7.0 miWSW (240°)9.2 mphOvercast
5:55 PM60.8 °F50.0 °F68 %29.73 in10.0 miSW (230°)6.9 mphLight Drizzle
6:15 PM59.0 °F48.2 °F67 %29.77 in10.0 miWSW (240°)10.4 mph19.6 mphDrizzle
6:35 PM55.4 °F50.0 °F82 %29.78 in10.0 miWSW (240°)6.9 mphRainRain
6:55 PM55.4 °F50.0 °F82 %29.76 in10.0 miWSW (240°)6.9 mphRainLight Rain
7:15 PM53.6 °F50.0 °F88 %29.77 in10.0 miWest (270°)5.8 mphDrizzle
7:35 PM53.6 °F48.2 °F82 %29.76 in10.0 miCalmRainLight Rain
7:55 PM53.6 °F50.0 °F88 %29.78 in10.0 miWest (260°)6.9 mphRainLight Rain
8:15 PM51.8 °F50.0 °F94 %29.80 in10.0 miWSW (250°)6.9 mph0.01 inRainLight Rain
8:35 PM51.8 °F50.0 °F94 %29.80 in5.0 miWSW (240°)8.1 mph17.3 mph0.01 inMostly Cloudy
8:55 PM51.8 °F50.0 °F94 %29.81 in7.0 miWSW (240°)3.5 mph0.01 inMostly Cloudy
9:15 PM51.8 °F50.0 °F94 %29.80 in7.0 miWest (260°)5.8 mphScattered Clouds
9:35 PM51.8 °F48.2 °F88 %29.79 in7.0 miWSW (250°)3.5 mphScattered Clouds
9:55 PM51.8 °F48.2 °F88 %29.83 in10.0 miWest (260°)5.8 mphClear
10:15 PM51.8 °F48.2 °F88 %29.82 in7.0 miWSW (250°)5.8 mphClear
10:35 PM51.8 °F48.2 °F88 %29.82 in10.0 miWest (260°)3.5 mphClear
10:55 PM51.8 °F48.2 °F88 %29.84 in7.0 miWSW (240°)5.8 mphClear
11:15 PM51.8 °F48.2 °F88 %29.84 in7.0 miWSW (250°)4.6 mphClear
11:35 PM51.8 °F50.0 °F94 %29.85 in7.0 miWest (260°)3.5 mphClear
11:55 PM51.8 °F50.0 °F94 %29.86 in7.0 miCalmClear
Hourly data recorded from KHYW, located miles away from Conway, South Carolina







STORIES FROM OUR PARTNERS